Meath Environmental Platform

Observations for Trim Patrick St

Time AQI Temp °C Hum % Pres Pa CO μg/m³ H₂S μg/m³ NO μg/m³ NO₂ μg/m³ O₃ μg/m³ SO₂ μg/m³ PM1 μg/m³ PM2.5 μg/m³ PM10 μg/m³
Saturday 8 August 2026
09:19 1 23.2 54 73,237 0.08 0 3.3 7.53 14.74 4.71 3.71 9.18 10.1
09:18 1 23.1 55 73,526 0.09 0 3.37 12.67 21.98 4.75 5.43 9.87 10.86
09:17 1 23 55 73,669 0.09 0 3.45 12.63 11.42 5.77 2.86 7.61 8.37
09:16 1 22.9 56 73,862 0.07 0 3.93 12.46 22.98 4.42 2.86 8.28 9.11
09:15 1 22.8 56 73,988 0.09 0 3.4 10.21 18.98 4.05 2.86 7.56 8.31
09:14 1 22.7 56 74,131 0.08 0 3.38 11.8 21.82 4.7 2.86 8.31 9.14
09:13 1 22.6 56 74,247 0.09 0 3.31 13.45 10.23 5.89 2.86 7.55 8.3
09:12 1 22.5 56 74,342 0.1 0 3.26 9.99 19.22 5 2.86 8.27 9.1
09:11 1 22.5 56 74,445 0.08 0 2.96 11.92 22.62 4.07 2.86 8.25 9.08
09:08 1 22.3 57 74,544 0.12 0 3.06 13.03 20.77 4.14 2.86 7.48 8.22
09:07 1 22.2 57 74,564 0.09 0 3.35 12.06 26.73 4.06 2.86 8.22 9.05
09:05 1 22.2 57 74,638 0.06 0 3.28 12.2 22.03 3.98 2 5.98 6.58
09:03 1 22 57 74,764 0.1 0 3.37 10.87 24.51 3.57 3.71 8.19 9.01
09:02 1 21.9 58 74,833 0.08 0 3.21 10.58 23.2 3.91 3.71 8.17 8.99
09:00 1 21.8 58 74,988 0.09 0 3.23 11.66 25.09 3.69 2.86 7.42 8.16
08:58 1 21.7 58 75,171 0.08 0 3.31 10.95 24.06 3.1 3.71 8.15 8.96
08:55 1 21.5 59 75,605 0.1 0 3.45 12.11 24.47 3.41 2.86 8.07 8.88
08:54 1 21.4 59 75,764 0.12 0 3.29 12.13 22.52 3.4 4.57 8.8 9.68
08:53 1 21.3 59 75,937 0.12 0 3.77 11.59 21.04 3.57 3.71 8.09 8.89
08:52 1 21.3 59 76,116 0.12 0 3.89 12.52 19.89 3.18 3.71 8.79 9.67